• In Hungary
  • List of Countries
  • For 7 days
  • Water Temperature
  • Satellite Maps
  • Weather Map
  • News
  • Weather Widgets
  • user-avatar
    Login

    Hourly Weather Bagno a Ripoli

    Today, 23 January, Tuesday

    Time Temperature Precipitation Wind Pressure Humidity
    00:00 +8°C° 0 mm 1 mps 752 mmHg 69%
    01:00 +8°C° 0 mm 1 mps 752 mmHg 70%
    02:00 +8°C° 0 mm 1 mps 752 mmHg 72%
    03:00 +7°C° 0 mm 1 mps 753 mmHg 75%
    04:00 +7°C° 0 mm 1 mps 753 mmHg 77%
    05:00 +7°C° 0 mm 1 mps 754 mmHg 78%
    06:00 +7°C° 0 mm 1 mps 754 mmHg 80%
    07:00 +6°C° 0 mm 1 mps 754 mmHg 81%
    08:00 +8°C° 0 mm 1 mps 755 mmHg 77%
    09:00 +9°C° 0 mm 1 mps 756 mmHg 72%
    10:00 +10°C° 0 mm 1 mps 756 mmHg 68%
    11:00 +12°C° 0 mm 1 mps 757 mmHg 63%
    12:00 +13°C° 0 mm 2 mps 757 mmHg 59%
    13:00 +14°C° 0 mm 2 mps 757 mmHg 55%
    14:00 +14°C° 0 mm 2 mps 758 mmHg 57%
    15:00 +13°C° 0 mm 2 mps 758 mmHg 60%
    16:00 +13°C° 0 mm 2 mps 759 mmHg 63%
    17:00 +10°C° 0 mm 2 mps 759 mmHg 68%
    18:00 +9°C° 0 mm 2 mps 760 mmHg 74%
    19:00 +7°C° 0 mm 2 mps 760 mmHg 80%
    20:00 +7°C° 0 mm 2 mps 761 mmHg 82%
    21:00 +7°C° 0 mm 2 mps 761 mmHg 83%
    22:00 +6°C° 0 mm 2 mps 762 mmHg 85%
    23:00 +7°C° 0 mm 1 mps 762 mmHg 85%

    Tomorrow, 24 January, Wednesday

    Time Temperature Precipitation Wind Pressure Humidity
    00:00 +7°C° 0 mm 1 mps 762 mmHg 85%
    01:00 +7°C° 0 mm 1 mps 763 mmHg 86%
    02:00 +7°C° 0 mm 1 mps 763 mmHg 85%
    03:00 +6°C° 0 mm 1 mps 763 mmHg 84%
    04:00 +6°C° 0 mm 1 mps 763 mmHg 84%
    05:00 +6°C° 0 mm 1 mps 763 mmHg 83%
    06:00 +6°C° 0 mm 1 mps 763 mmHg 82%
    07:00 +6°C° 0 mm 1 mps 763 mmHg 81%
    08:00 +7°C° 0 mm 1 mps 764 mmHg 76%
    09:00 +9°C° 0 mm 1 mps 764 mmHg 71%
    10:00 +10°C° 0 mm 1 mps 764 mmHg 66%
    11:00 +12°C° 0 mm 1 mps 764 mmHg 64%
    12:00 +13°C° 0 mm 1 mps 764 mmHg 61%
    13:00 +14°C° 0 mm 1 mps 764 mmHg 59%
    14:00 +14°C° 0 mm 1 mps 764 mmHg 62%
    15:00 +14°C° 0 mm 1 mps 763 mmHg 66%
    16:00 +14°C° 0 mm 1 mps 763 mmHg 69%
    17:00 +12°C° 0 mm 1 mps 763 mmHg 75%
    18:00 +11°C° 0 mm 1 mps 763 mmHg 80%
    19:00 +9°C° 0 mm 0 mps 763 mmHg 86%
    20:00 +9°C° 0 mm 1 mps 763 mmHg 88%
    21:00 +9°C° 0 mm 1 mps 763 mmHg 89%
    22:00 +8°C° 0 mm 1 mps 763 mmHg 91%
    23:00 +8°C° 0 mm 1 mps 763 mmHg 91%

    Day after tomorrow, 25 January, Thursday

    Time Temperature Precipitation Wind Pressure Humidity
    00:00 +8°C° 0 mm 1 mps 763 mmHg 92%
    01:00 +8°C° 0 mm 1 mps 763 mmHg 93%
    02:00 +8°C° 0 mm 1 mps 763 mmHg 93%
    03:00 +8°C° 0 mm 1 mps 762 mmHg 93%
    04:00 +8°C° 0 mm 1 mps 762 mmHg 93%
    05:00 +8°C° 0 mm 1 mps 762 mmHg 92%
    06:00 +8°C° 0 mm 1 mps 762 mmHg 92%
    07:00 +7°C° 0 mm 2 mps 761 mmHg 92%
    08:00 +8°C° 0 mm 2 mps 761 mmHg 90%
    09:00 +8°C° 0 mm 2 mps 761 mmHg 88%
    10:00 +9°C° 0 mm 2 mps 761 mmHg 86%
    11:00 +10°C° 0 mm 2 mps 761 mmHg 83%
    12:00 +12°C° 0 mm 2 mps 761 mmHg 81%
    13:00 +12°C° 0 mm 2 mps 760 mmHg 79%
    14:00 +12°C° 0 mm 2 mps 760 mmHg 80%
    15:00 +12°C° 0 mm 2 mps 759 mmHg 81%
    16:00 +12°C° 0 mm 2 mps 759 mmHg 82%
    17:00 +10°C° 0 mm 2 mps 759 mmHg 84%
    18:00 +10°C° 0 mm 2 mps 758 mmHg 87%
    19:00 +9°C° 0 mm 2 mps 758 mmHg 90%
    20:00 +9°C° 0 mm 2 mps 758 mmHg 90%
    21:00 +8°C° 0 mm 2 mps 758 mmHg 90%
    22:00 +8°C° 0 mm 2 mps 758 mmHg 90%
    23:00 +8°C° 0 mm 2 mps 757 mmHg 89%

    26 January, Friday

    Time Temperature Precipitation Wind Pressure Humidity
    00:00 +8°C° 0 mm 2 mps 757 mmHg 88%
    01:00 +8°C° 0 mm 2 mps 757 mmHg 87%
    02:00 +8°C° 0.1 mm 2 mps 756 mmHg 88%
    03:00 +8°C° 0.1 mm 2 mps 756 mmHg 88%
    04:00 +8°C° 0.1 mm 2 mps 755 mmHg 88%
    05:00 +8°C° 0.1 mm 2 mps 755 mmHg 88%
    06:00 +8°C° 0.1 mm 2 mps 755 mmHg 89%
    07:00 +9°C° 0.1 mm 2 mps 755 mmHg 89%
    08:00 +9°C° 0.1 mm 2 mps 755 mmHg 88%
    09:00 +10°C° 0.1 mm 2 mps 755 mmHg 88%
    10:00 +10°C° 0.1 mm 3 mps 754 mmHg 87%
    11:00 +11°C° 0.1 mm 3 mps 754 mmHg 86%
    12:00 +11°C° 0.1 mm 3 mps 754 mmHg 84%
    13:00 +12°C° 0.1 mm 4 mps 753 mmHg 83%
    14:00 +12°C° 0.2 mm 4 mps 753 mmHg 83%
    15:00 +12°C° 0.2 mm 4 mps 753 mmHg 83%
    16:00 +13°C° 0.2 mm 4 mps 753 mmHg 84%
    17:00 +12°C° 0.2 mm 4 mps 753 mmHg 86%
    18:00 +11°C° 0.2 mm 3 mps 753 mmHg 89%
    19:00 +11°C° 0.2 mm 3 mps 753 mmHg 91%
    20:00 +11°C° 0.4 mm 3 mps 753 mmHg 91%
    21:00 +11°C° 0.4 mm 3 mps 753 mmHg 91%
    22:00 +11°C° 0.4 mm 3 mps 754 mmHg 91%
    23:00 +11°C° 0.3 mm 3 mps 754 mmHg 92%

    27 January, Saturday

    Time Temperature Precipitation Wind Pressure Humidity
    00:00 +10°C° 0.3 mm 3 mps 754 mmHg 92%
    01:00 +10°C° 0.3 mm 2 mps 754 mmHg 93%
    02:00 +10°C° 0.2 mm 2 mps 754 mmHg 93%
    03:00 +10°C° 0.2 mm 2 mps 754 mmHg 94%
    04:00 +10°C° 0.2 mm 2 mps 754 mmHg 94%
    05:00 +10°C° 0.1 mm 2 mps 754 mmHg 94%
    06:00 +11°C° 0.1 mm 1 mps 755 mmHg 94%
    07:00 +11°C° 0.1 mm 1 mps 755 mmHg 95%
    08:00 +11°C° 0 mm 1 mps 756 mmHg 93%
    09:00 +12°C° 0 mm 1 mps 756 mmHg 91%
    10:00 +12°C° 0 mm 1 mps 757 mmHg 89%
    11:00 +12°C° 0.3 mm 1 mps 757 mmHg 87%
    12:00 +13°C° 0.3 mm 1 mps 758 mmHg 85%
    13:00 +13°C° 0.3 mm 1 mps 758 mmHg 83%
    14:00 +13°C° 0.6 mm 1 mps 758 mmHg 84%
    15:00 +13°C° 0.6 mm 1 mps 759 mmHg 86%
    16:00 +13°C° 0.6 mm 1 mps 759 mmHg 87%
    17:00 +12°C° 0.9 mm 1 mps 759 mmHg 89%
    18:00 +12°C° 0.9 mm 1 mps 760 mmHg 91%
    19:00 +10°C° 0.9 mm 2 mps 760 mmHg 93%
    20:00 +10°C° 0.8 mm 2 mps 761 mmHg 93%
    21:00 +10°C° 0.8 mm 2 mps 761 mmHg 93%
    22:00 +10°C° 0.8 mm 2 mps 762 mmHg 93%
    23:00 +10°C° 0.1 mm 2 mps 762 mmHg 93%

    28 January, Sunday

    Time Temperature Precipitation Wind Pressure Humidity
    00:00 +9°C° 0.1 mm 2 mps 763 mmHg 93%
    01:00 +9°C° 0.1 mm 2 mps 763 mmHg 93%
    02:00 +9°C° 0 mm 2 mps 763 mmHg 93%
    03:00 +9°C° 0 mm 2 mps 763 mmHg 93%
    04:00 +8°C° 0 mm 2 mps 763 mmHg 93%
    05:00 +9°C° 0 mm 1 mps 763 mmHg 93%
    06:00 +9°C° 0 mm 1 mps 763 mmHg 93%
    07:00 +9°C° 0 mm 1 mps 764 mmHg 93%
    08:00 +10°C° 0 mm 1 mps 764 mmHg 89%
    09:00 +11°C° 0 mm 1 mps 764 mmHg 86%
    10:00 +10°C° 0 mm 2 mps 765 mmHg 83%
    11:00 +12°C° 0 mm 1 mps 765 mmHg 79%
    12:00 +13°C° 0 mm 1 mps 765 mmHg 75%
    13:00 +14°C° 0 mm 1 mps 765 mmHg 72%
    14:00 +14°C° 0 mm 1 mps 764 mmHg 72%
    15:00 +14°C° 0 mm 1 mps 764 mmHg 73%
    16:00 +14°C° 0 mm 1 mps 764 mmHg 73%
    17:00 +13°C° 0 mm 1 mps 764 mmHg 78%
    18:00 +11°C° 0 mm 1 mps 764 mmHg 83%
    19:00 +10°C° 0 mm 1 mps 764 mmHg 88%
    20:00 +10°C° 0 mm 1 mps 765 mmHg 88%
    21:00 +9°C° 0 mm 1 mps 765 mmHg 89%
    22:00 +9°C° 0 mm 1 mps 765 mmHg 89%
    23:00 +9°C° 0 mm 1 mps 765 mmHg 89%
    Show more